[[{"header":{"parameterUnit":"m.s-1","parameterCategory":1,"la1":30.2991,"la2":30.254,"lo1":-89.0895,"lo2":-89.0444,"dy":0.0017,"dx":0.0017,"nx":28,"ny":28,"refTime":"2025-12-01T09:00:00:Z","depth":0,"parameterNumber":2,"parameterNumberName":"U-component_of_WINDS"},"data":[0,0,0,0,0,0,0,0,0,0,0,0,0,0,0,0,0,0,0,0,0,0,0,0,0,0,0,0,0,0,0,0,0,0,0,0,0,0,0,0,0,0,0,0,0,0,0,0,0,0,0,0,0,0,0,0,0,0,3.0996,3.0996,0,3.1003,3.1003,3.1004,3.0957,3.0955,3.0954,3.0953,3.096,3.0962,3.0963,0,0,0,0,0,0,0,0,0,0,0,0,0,3.0944,3.0945,3.0996,3.0996,3.0996,3.1003,3.1003,3.1004,3.0957,3.0955,3.0954,3.0952,3.096,3.0962,3.0963,0,0,0,0,0,0,0,0,0,0,0,0,0,3.096,3.0945,3.0996,3.0974,3.0972,3.1003,3.1003,3.1004,3.0957,3.0955,3.0953,3.0951,3.0959,3.0961,3.0964,3.1017,0,0,3.097,3.0971,0,0,0,0,0,0,0,0,3.0959,3.0962,3.0977,3.0975,3.0973,3.0977,3.0988,3.1008,3.0958,3.0963,3.0953,3.095,3.0968,3.0969,3.0975,3.1017,3.1017,3.097,3.0972,3.0973,3.0973,0,0,0,0,0,0,0,3.0958,3.0962,3.0999,3.0977,3.0975,3.0964,3.0964,3.0991,3.0976,3.0962,3.0959,3.096,3.0966,3.0973,3.0974,3.1017,3.097,3.0972,3.0974,3.0974,3.1106,3.1108,0,0,0,0,0,0,3.096,3.0961,3.0999,3.0999,3.0961,3.0967,3.0967,3.0978,3.0976,3.0974,3.0962,3.0958,3.097,3.0972,3.0975,3.1038,3.0973,3.0975,3.0976,3.1104,3.1107,3.1109,0,0,0,0,0,0,3.0959,3.0964,3.0998,3.0979,3.0983,3.097,3.0983,3.0979,3.0985,3.0976,3.0973,3.0971,3.0968,3.0972,3.1007,3.1037,3.0976,3.0977,3.1101,3.1105,3.1108,3.1164,0,0,0,0,0,0,3.0958,3.0964,3.0983,3.098,3.0984,3.103,3.0984,3.0981,3.0989,3.0984,3.0984,3.0982,3.0967,3.1004,3.1009,3.1039,3.0979,3.1098,3.1103,3.1107,3.1159,3.1169,3.1177,0,0,0,0,0,3.0956,3.0998,3.0984,3.0989,3.1008,3.1032,3.1034,3.1017,3.0992,3.1012,3.1006,3.0982,3.1033,3.1008,3.1013,3.1045,3.1096,3.1102,3.1106,3.1155,3.1167,3.1177,0,0,0,0,0,0,3.1005,3.0997,3.0982,3.1024,3.1029,3.1024,3.1048,3.1029,3.1041,3.1036,3.1014,3.1014,3.1054,3.1053,3.1025,3.1097,3.1061,3.1067,3.1096,3.1107,3.1116,3.1115,3.0981,0,0,0,0,0,3.102,3.104,3.1033,3.1071,3.1075,3.1062,3.1071,3.1058,3.1062,3.1064,3.106,3.1066,3.1083,3.1095,3.111,3.1159,3.1159,3.1184,3.1192,3.12,3.1205,3.1233,3.1244,3.1125,3.1125,3.1125,0,0,3.1053,3.1051,3.1065,3.1081,3.1083,3.1105,3.1063,3.1088,3.1104,3.1067,3.1101,3.1099,3.1103,3.1146,3.1165,3.1147,3.1238,3.1206,3.1212,3.1213,3.1239,3.125,3.126,3.1129,3.1128,3.1127,0,0,3.1123,3.1124,3.1156,3.116,3.1164,3.1156,3.1164,3.1162,3.116,3.1193,3.1167,3.1186,3.1216,3.1221,3.1228,3.1303,3.1282,3.1309,3.1355,3.1382,3.1391,3.1399,3.1427,3.1437,3.1315,3.1315,3.1315,0,3.1163,3.1194,3.1175,3.1202,3.1211,3.118,3.1213,3.1218,3.1227,3.1234,3.1213,3.1252,3.1253,3.1297,3.1316,3.1322,3.1331,3.1309,3.1391,3.1399,3.1407,3.1433,3.1444,3.1318,3.1318,3.1318,3.1317,0,3.1244,3.1266,3.1292,3.1303,3.1314,3.1344,3.1331,3.1345,3.1331,3.1325,3.1361,3.1361,3.1377,3.1386,3.1373,3.143,3.1418,3.1395,3.1358,3.1422,3.1446,3.1456,3.1323,3.1322,3.1321,3.132,0,0,3.1343,3.1344,3.1354,3.136,3.1363,3.1381,3.141,3.1426,3.1439,3.1448,3.1472,3.15,3.1479,3.1487,3.1474,3.1498,3.1559,3.1471,3.1471,3.1488,3.1623,3.1641,3.1653,3.1545,3.1547,3.1548,3.1623,0,3.1412,3.1462,3.1448,3.1498,3.152,3.1492,3.1518,3.1524,3.1519,3.1538,3.1533,3.1553,3.1524,3.1528,3.1551,3.1547,3.1586,3.1541,3.1569,3.157,3.1568,3.1666,3.1684,3.1754,3.1633,3.1634,3.1635,0,3.1499,3.1512,3.1565,3.1567,3.1576,3.1599,3.1614,3.1631,3.1638,3.1633,3.1643,3.1626,3.1656,3.162,3.1662,3.1632,3.1643,3.1643,3.1645,3.1647,3.1606,3.167,3.1776,3.1787,3.165,3.1649,3.1648,0,3.1567,3.1598,3.1634,3.1639,3.1642,3.166,3.1662,3.1667,3.1678,3.1691,3.1699,3.1715,3.1724,3.1738,3.1726,3.17,3.1771,3.1733,3.1768,3.1769,3.1784,3.1783,3.1893,3.1791,3.1791,3.179,3.179,0,3.1646,3.168,3.1665,3.1687,3.1725,3.1708,3.1746,3.1745,3.175,3.1772,3.1749,3.1771,3.1754,3.1774,3.1765,3.1803,3.1807,3.1804,3.1802,3.1807,3.1807,3.1813,3.1808,3.1793,3.1793,3.1792,3.1792,0,3.1728,3.1719,3.1757,3.1758,3.1759,3.1787,3.1788,3.1809,3.1804,3.1833,3.1838,3.1831,3.1854,3.1844,3.1868,3.1862,3.191,3.19,3.1908,3.1905,3.1942,3.1939,3.206,3.2075,3.1963,3.1964,3.1965,0,3.1779,3.1805,3.1809,3.1822,3.1826,3.1848,3.186,3.1846,3.1859,3.187,3.189,3.1912,3.1928,3.1966,3.1963,3.1982,3.1973,3.2015,3.1976,3.1981,3.1975,3.1974,3.1977,3.2022,3.2023,3.2025,3.2025,0,3.1871,3.1866,3.1884,3.1901,3.1916,3.1929,3.194,3.1952,3.1938,3.1955,3.1979,3.1991,3.2017,3.2039,3.2056,3.2059,3.2041,3.2038,3.2047,3.2052,3.2056,3.2055,3.1929,3.2035,3.2034,3.2033,3.2033,3.2032,3.1939,3.1961,3.1968,3.199,3.1997,3.2008,3.2028,3.2027,3.2046,3.2066,3.2057,3.2085,3.2093,3.2114,3.212,3.2142,3.2126,3.2139,3.2143,3.2146,3.2152,3.2053,3.2145,3.2145,3.2145,3.2144,3.2144,0,3.203,3.2034,3.2054,3.207,3.2088,3.207,3.2081,3.2097,3.2122,3.2131,3.2148,3.2177,3.2198,3.2198,3.2218,3.2237,3.2229,3.2242,3.2241,3.2242,3.2164,3.2155,3.2249,3.2249,3.2249,3.2249,3.2249,3.2248,3.208,3.2117,3.2113,3.2154,3.2157,3.2185,3.2193,3.2204,3.2212,3.2244,3.2263,3.2262,3.2268,3.2289,3.2309,3.2308,3.2317,3.2334,3.2331,3.2258,3.2248,3.2238,3.2228,3.2336,3.2336,3.2407,3.2408,3.2408]},{"header":{"parameterUnit":"m.s-1","parameterCategory":1,"la1":30.2991,"la2":30.254,"lo1":-89.0895,"lo2":-89.0444,"dy":0.0017,"dx":0.0017,"nx":28,"ny":28,"refTime":"2025-12-01T09:00:00:Z","depth":0,"parameterNumber":3,"parameterNumberName":"V-component_of_WINDS"},"data":[0,0,0,0,0,0,0,0,0,0,0,0,0,0,0,0,0,0,0,0,0,0,0,0,0,0,0,0,0,0,0,0,0,0,0,0,0,0,0,0,0,0,0,0,0,0,0,0,0,0,0,0,0,0,0,0,0,0,-7.7077,-7.7078,0,-7.725,-7.7252,-7.7254,-7.7224,-7.7221,-7.7218,-7.7216,-7.7386,-7.7393,-7.7401,0,0,0,0,0,0,0,0,0,0,0,0,0,-7.6714,-7.6721,-7.7076,-7.7079,-7.7081,-7.725,-7.7252,-7.7254,-7.7225,-7.7221,-7.7218,-7.7214,-7.7384,-7.7392,-7.7401,0,0,0,0,0,0,0,0,0,0,0,0,0,-7.6878,-7.6723,-7.7076,-7.7087,-7.7089,-7.7249,-7.7252,-7.7255,-7.7226,-7.7221,-7.7217,-7.7212,-7.7381,-7.7392,-7.7402,-7.7561,0,0,-7.7436,-7.7441,0,0,0,0,0,0,0,0,-7.6868,-7.6891,-7.7083,-7.7086,-7.7089,-7.7211,-7.7187,-7.7357,-7.7227,-7.7174,-7.7216,-7.721,-7.7331,-7.7346,-7.7388,-7.7569,-7.7576,-7.7437,-7.7444,-7.7448,-7.7452,0,0,0,0,0,0,0,-7.6857,-7.6883,-7.7145,-7.7086,-7.709,-7.7081,-7.7099,-7.7219,-7.7275,-7.7178,-7.7176,-7.7198,-7.7332,-7.7378,-7.7392,-7.7578,-7.7437,-7.7447,-7.7453,-7.7458,-7.7899,-7.7903,0,0,0,0,0,0,-7.6843,-7.6874,-7.7139,-7.715,-7.6966,-7.7091,-7.7112,-7.7176,-7.7274,-7.7285,-7.7201,-7.7196,-7.7361,-7.7379,-7.7398,-7.7591,-7.7448,-7.7459,-7.7465,-7.7894,-7.79,-7.7905,0,0,0,0,0,0,-7.6836,-7.6867,-7.7132,-7.7012,-7.7045,-7.7102,-7.7175,-7.7182,-7.7228,-7.7292,-7.7301,-7.7238,-7.7358,-7.7382,-7.7521,-7.7596,-7.7464,-7.7474,-7.7888,-7.7895,-7.7902,-7.7977,0,0,0,0,0,0,-7.6826,-7.6865,-7.6927,-7.7014,-7.7051,-7.7255,-7.718,-7.7189,-7.7248,-7.7242,-7.7329,-7.7338,-7.7356,-7.7505,-7.7532,-7.7609,-7.7482,-7.7881,-7.7891,-7.79,-7.7968,-7.7986,-7.8001,0,0,0,0,0,-7.6813,-7.6939,-7.693,-7.6962,-7.713,-7.7259,-7.7281,-7.7301,-7.7254,-7.7316,-7.7357,-7.7336,-7.7584,-7.7519,-7.755,-7.7631,-7.7876,-7.7888,-7.7899,-7.796,-7.7982,-7.8001,0,0,0,0,0,0,-7.6856,-7.695,-7.6942,-7.71,-7.7172,-7.7254,-7.7333,-7.7323,-7.7408,-7.7399,-7.7418,-7.7438,-7.7579,-7.7619,-7.7546,-7.779,-7.7723,-7.7741,-7.7759,-7.778,-7.7797,-7.7784,-7.7491,0,0,0,0,0,-7.6885,-7.6984,-7.7059,-7.7192,-7.7229,-7.7275,-7.7332,-7.7341,-7.7416,-7.7445,-7.7497,-7.7568,-7.7662,-7.7723,-7.7813,-7.7973,-7.7992,-7.8044,-7.8061,-7.8074,-7.809,-7.8178,-7.8202,-7.7943,-7.7943,-7.7943,0,0,-7.6944,-7.7007,-7.7068,-7.7202,-7.7259,-7.736,-7.73,-7.7409,-7.7483,-7.7461,-7.7596,-7.7637,-7.7717,-7.7868,-7.7937,-7.7905,-7.8166,-7.8089,-7.8099,-7.8107,-7.8192,-7.8217,-7.8239,-7.7951,-7.7949,-7.7948,0,0,-7.7103,-7.7161,-7.7279,-7.7338,-7.7426,-7.7456,-7.7485,-7.7569,-7.7596,-7.7733,-7.7719,-7.7806,-7.7967,-7.8026,-7.8077,-7.8261,-7.8244,-7.8289,-7.8377,-7.8463,-7.8483,-7.8502,-7.8568,-7.8591,-7.8304,-7.8305,-7.8305,0,-7.7164,-7.7317,-7.7339,-7.7451,-7.751,-7.7498,-7.7616,-7.7672,-7.7784,-7.7824,-7.7788,-7.7992,-7.8045,-7.821,-7.8255,-7.8297,-7.8329,-7.8279,-7.8479,-7.8498,-7.8515,-7.8578,-7.8603,-7.831,-7.8309,-7.8308,-7.8308,0,-7.7389,-7.7495,-7.7579,-7.7691,-7.776,-7.7874,-7.7912,-7.7979,-7.7983,-7.8016,-7.8156,-7.822,-7.8323,-7.8363,-7.8367,-7.8529,-7.8507,-7.8475,-7.8408,-7.8544,-7.8604,-7.8628,-7.8317,-7.8315,-7.8313,-7.8312,0,0,-7.7579,-7.7704,-7.7734,-7.7786,-7.7883,-7.7965,-7.8078,-7.8182,-7.8239,-7.8317,-7.8412,-7.855,-7.8522,-7.858,-7.859,-7.8666,-7.8809,-7.8625,-7.8627,-7.8657,-7.8992,-7.9016,-7.9043,-7.8798,-7.8803,-7.8807,-7.8985,0,-7.7748,-7.7951,-7.7975,-7.8155,-7.8253,-7.8244,-7.8342,-7.8412,-7.8447,-7.8534,-7.8571,-7.8669,-7.8624,-7.866,-7.8734,-7.8775,-7.8876,-7.8763,-7.8886,-7.889,-7.8866,-7.9074,-7.91,-7.9265,-7.9009,-7.9013,-7.9015,0,-7.7971,-7.8059,-7.825,-7.8336,-7.8378,-7.8467,-7.8565,-7.8649,-7.8727,-7.8747,-7.8814,-7.8815,-7.893,-7.886,-7.9019,-7.8942,-7.8994,-7.9022,-7.9029,-7.9041,-7.8961,-7.9092,-7.9318,-7.9343,-7.9052,-7.9049,-7.9047,0,-7.8092,-7.8257,-7.8394,-7.8438,-7.8541,-7.8604,-7.8649,-7.8724,-7.8785,-7.887,-7.891,-7.9006,-7.9059,-7.9133,-7.9159,-7.9106,-7.9318,-7.9249,-7.9337,-7.9336,-7.9381,-7.9378,-7.9619,-7.9415,-7.9414,-7.9414,-7.9413,0,-7.8278,-7.8395,-7.8449,-7.8533,-7.8664,-7.869,-7.8818,-7.886,-7.8927,-7.9018,-7.9014,-7.9099,-7.9129,-7.9219,-7.924,-7.9369,-7.9392,-7.9411,-7.9415,-7.9412,-7.9409,-7.9445,-7.9435,-7.942,-7.9419,-7.9418,-7.9416,0,-7.8434,-7.8475,-7.8623,-7.871,-7.8735,-7.8827,-7.8901,-7.8981,-7.9015,-7.913,-7.9158,-7.9212,-7.9317,-7.9351,-7.9477,-7.9491,-7.9642,-7.9636,-7.9617,-7.9617,-7.9703,-7.9695,-7.9975,-8.0014,-7.9784,-7.9786,-7.9788,0,-7.855,-7.864,-7.8738,-7.88,-7.8849,-7.8948,-7.9012,-7.9041,-7.9107,-7.9205,-7.9273,-7.9378,-7.9464,-7.9632,-7.9681,-7.9777,-7.9774,-7.9866,-7.9788,-7.9782,-7.9776,-7.977,-7.978,-7.988,-7.9882,-7.9884,-7.9886,0,-7.8752,-7.8769,-7.8862,-7.8964,-7.9041,-7.9121,-7.9198,-7.9249,-7.9289,-7.9363,-7.9473,-7.9539,-7.967,-7.9774,-7.9873,-7.9918,-7.9909,-7.991,-7.9936,-7.9933,-7.9918,-7.9928,-7.9657,-7.9903,-7.9901,-7.99,-7.9899,-7.9899,-7.8892,-7.8973,-7.9055,-7.9159,-7.9221,-7.9295,-7.9375,-7.9421,-7.9513,-7.9624,-7.9635,-7.9753,-7.9829,-7.9962,-8.0012,-8.0103,-8.0077,-8.0114,-8.0123,-8.0132,-8.0139,-7.9904,-8.0121,-8.0121,-8.012,-8.012,-8.012,0,-7.9094,-7.9147,-7.9243,-7.9354,-7.9436,-7.9423,-7.9509,-7.9578,-7.9683,-7.9756,-7.9842,-7.9968,-8.0069,-8.0127,-8.0228,-8.029,-8.0289,-8.0316,-8.0311,-8.0322,-8.0156,-8.0125,-8.0316,-8.0316,-8.0315,-8.0315,-8.0315,-8.0315,-7.9209,-7.9345,-7.9372,-7.9539,-7.959,-7.9708,-7.9758,-7.9825,-7.9885,-8.0027,-8.0112,-8.015,-8.0218,-8.0324,-8.0416,-8.0431,-8.0468,-8.0498,-8.0509,-8.0353,-8.0333,-8.0314,-8.0285,-8.0506,-8.0506,-8.0668,-8.0669,-8.067]}]]